Location: Muenchen
(48.1800°N, 11.5800°E)
Time: 07:14:32
(UTC+02:00)

Vanguard 2 Rocket - Visible Passes

Search period start: 30 June 2015 00:00
Search period end: 10 July 2015 00:00
Orbit: 555 x 3331 km, 32.9° (Epoch: 29 June)

Date Brightness Start Highest point End Pass type
(mag) Time Alt. Az. Time Alt. Az. Time Alt. Az.
30 Jun 9.7 01:37:13 10° SW 01:54:32 47° SSE 02:12:18 10° ESE visible
30 Jun 9.7 03:52:32 10° WSW 04:11:12 47° S 04:26:48 10° SE visible
30 Jun 9.9 22:28:07 10° S 22:38:51 23° SE 22:52:47 10° E visible
01 Jul 9.7 00:37:58 10° SW 00:53:46 43° SSE 01:11:49 10° E visible
01 Jul 9.7 02:52:01 10° WSW 03:10:22 49° S 03:27:25 10° ESE visible
01 Jul 9.7 23:39:19 10° SSW 23:53:18 37° SSE 00:10:44 10° E visible
02 Jul 9.6 01:52:02 10° WSW 02:09:26 49° S 02:27:32 10° ESE visible
02 Jul 9.8 04:07:47 10° W 04:26:01 44° SSW 04:41:32 10° SE visible
02 Jul 9.8 22:41:23 10° SSW 22:53:15 30° SE 23:09:01 10° E visible
03 Jul 9.6 00:52:37 10° SW 01:08:35 47° SSE 01:27:07 10° ESE visible
03 Jul 9.7 03:07:11 10° WSW 03:25:16 48° S 03:42:19 10° SE visible
03 Jul 9.8 21:44:18 10° S 21:53:39 22° SE 22:06:30 10° E visible
03 Jul 9.6 23:53:43 10° SW 00:07:59 42° SSE 00:26:09 10° E visible
04 Jul 9.6 02:07:06 10° WSW 02:24:21 49° S 02:42:33 10° ESE visible
04 Jul 9.9 04:23:14 10° W 04:40:44 38° SSW 04:55:53 10° SSE visible
04 Jul 9.6 22:55:24 10° SSW 23:07:47 36° SSE 23:24:42 10° E visible
05 Jul 9.6 01:07:33 10° WSW 01:23:29 49° S 01:42:14 10° ESE visible
05 Jul 9.8 03:22:30 10° W 03:40:06 44° SSW 03:56:55 10° SE visible
05 Jul 9.6 21:57:44 10° SSW 22:08:03 29° SE 22:22:42 10° E visible
06 Jul 9.5 00:08:29 10° SW 00:22:48 46° SSE 00:41:23 10° ESE visible
06 Jul 9.7 02:22:21 10° WSW 02:39:16 47° S 02:57:20 10° SE visible
06 Jul 10.0 04:38:59 10° W 04:55:19 32° SSW 05:09:41 10° SSE visible
06 Jul 9.5 23:09:55 10° SW 23:22:29 41° SSE 23:40:04 10° E visible
07 Jul 9.6 01:22:41 10° WSW 01:38:25 49° S 01:57:09 10° ESE visible
07 Jul 9.8 03:38:02 10° W 03:54:50 38° SSW 04:11:06 10° SSE visible
07 Jul 9.5 22:11:53 10° SSW 22:22:37 34° SSE 22:38:20 10° E visible
08 Jul 9.5 00:23:31 10° WSW 00:37:43 48° S 00:56:25 10° ESE visible
08 Jul 9.7 02:37:46 10° W 02:54:08 43° SSW 03:11:47 10° SE visible
08 Jul 9.4 23:24:47 10° SW 23:37:20 44° SSE 23:55:13 10° ESE visible
09 Jul 9.6 01:38:00 10° WSW 01:53:21 46° S 02:11:48 10° SE visible
09 Jul 10.0 03:53:53 10° W 04:09:30 31° SSW 04:24:40 10° SSE visible
09 Jul 9.3 22:26:31 10° SW 22:37:21 39° SSE 22:53:39 10° E visible
